Regional Weather Roundup
Issued by NWS

Home | Current Version | Previous Version | Graphics & Text | Print | Product List | Glossary On
Versions: 1 2 3 4 5 6 7 8 9 10 11 12 13 14 15 16 17 18 19 20 21 22 23 24 25 26 27 28 29 30 31 32 33 34 35 36 37 38 39 40 41 42 43 44 45 46 47 48 49 50
000
ASUS43 KLOT 220110
RWRIL

ILLINOIS REGIONAL WEATHER ROUNDUP
NATIONAL WEATHER SERVICE CHICAGO/ROMEOVILLE IL
800 PM CDT TUE OCT 21 2014

NOTE: "FAIR" INDICATES FEW OR NO CLOUDS BELOW 12,000 FEET WITH NO
SIGNIFICANT WEATHER AND/OR OBSTRUCTIONS TO VISIBILITY.

* THESE STATIONS ARE NOT UNDER NWS QUALITY CONTROL. THEY ALSO MAY NOT
  REPORT WEATHER SUCH AS PRECIPITATION OR FOG.

ILZ001-002-007-009-015-016-024-220200-
NORTHWEST ILLINOIS

CITY           SKY/WX    TMP DP  RH WIND       PRES   REMARKS
MOLINE         CLEAR     42  36  79 E6        30.21R
STERLING*      CLEAR     43  34  70 E8        30.24R
SAVANNA*       CLEAR     44  36  74 NE5       30.24R
$$

ILZ003-004-008-010-011-017-018-220200-
NORTH CENTRAL ILLINOIS

CITY           SKY/WX    TMP DP  RH WIND       PRES   REMARKS
ROCKFORD       PTCLDY    46  36  68 NE5       30.27R
FREEPORT*      CLEAR     41  36  83 CALM      30.26R
ROCHELLE*      CLEAR     44  37  77 NE6       30.25R
DE KALB*       PTCLDY    41  36  80 E3        30.25R
PERU*          CLEAR     47  38  71 E10       30.24R
$$

ILZ005-006-012>014-019>023-220200-
NORTHEAST ILLINOIS

CITY           SKY/WX    TMP DP  RH WIND       PRES   REMARKS
CHICAGO-OHARE  MOCLDY    47  37  68 N8        30.24R
CHICAGO-MIDWAY CLOUDY    51  39  63 N14       30.24R
AURORA         CLOUDY    48  36  63 N7        30.25R
LANSING*       CLOUDY    49  39  67 N13G18    30.23R
JOLIET*        CLOUDY    48  39  70 N8        30.24R
WAUKEGAN       PTCLDY    42  36  79 CALM      30.24S
DUPAGE AIRPORT PTCLDY    43  36  76 N7        30.24R
KANKAKEE*      CLOUDY    49  40  70 N6        30.24R
WHEELING       MOCLDY    47  37  68 N6        30.26R
MORRIS*        CLOUDY    49  41  73 CALM      30.24R
ROMEOVILLE*    CLOUDY    48  38  68 N9G16     30.24R
NORTHERLY ISL    N/A     49  39  68 NE13        N/A
$$

LMZ740>746-220200-
SOUTHERN LAKE MICHIGAN

STATION/POSITION SKY/WX   TEMP    WIND        PRES    VSBY  WAVE
                          AIR SEA DIR/SP/G                  HT/PER
                          (F)     (DEG/KT/KT) (MB)    (MI)  (FT/S)
SOUTHERN BUOY              49 54  350/ 14/ 17 1023.9R         5/ 7
WAUKEGAN HARBOR            48      20/ 16/ 19   N/A
HARRISON CRIB              49      10/ 15/ 20   N/A
BURNHAM HARBOR             49      20/ 11/ 16   N/A
CALUMET HARBOR             49     360/ 11/ 16 1022.5R
MICHIGAN CITY              50     360/ 15/ 19   N/A
$$

ILZ025>027-034>036-040-047-049-050-058-095>099-220200-
WEST-CENTRAL ILLINOIS

CITY           SKY/WX    TMP DP  RH WIND       PRES   REMARKS
QUINCY         CLEAR     53  39  59 E6        30.17R
GALESBURG*     CLEAR     43  38  83 NE5       30.20R
MACOMB*        CLEAR     44  38  78 NE5       30.21R
JACKSONVILLE*  CLEAR     50  41  70 NE7       30.19R
PITTSFIELD*    CLEAR     53  41  64 NE3       30.18R
$$

ILZ028>032-037-038-041>044-048-051>054-059>061-220200-
CENTRAL ILLINOIS

CITY           SKY/WX    TMP DP  RH WIND       PRES   REMARKS
PONTIAC        CLEAR     44  39  83 NE7       30.23S
BLOOMINGTON    CLEAR     47  42  82 E7        30.22R
DECATUR        CLEAR     48  42  80 NE10      30.20R
PEORIA         CLEAR     50  38  63 NE5       30.21R
LACON*         CLEAR     47  38  72 E12       30.22R
LINCOLN*       CLEAR     46  39  75 NE3       30.20R
SPRINGFIELD    CLEAR     46  40  79 N6        30.19R
TAYLORVILLE    CLEAR     50  37  62 NE7       30.19R
$$

ILZ033-039-045-046-055>057-062-063-220200-
EAST-CENTRAL ILLINOIS

CITY           SKY/WX    TMP DP  RH WIND       PRES   REMARKS
CHAMPAIGN      CLEAR     49  40  71 NE12      30.20R
DANVILLE*      CLOUDY    48  42  81 N8        30.18R
RANTOUL*       CLOUDY    52  40  63 NE8       30.22R
MATTOON        CLEAR     48  41  76 NE9       30.18R
PARIS*         CLOUDY    51  44  77 N3        30.20R
$$

ILZ079-100>102-220200-
SOUTHWEST ILLINOIS

CITY           SKY/WX    TMP DP  RH WIND       PRES   REMARKS
BELLEVILLE     CLEAR     55  44  65 NE5       30.15R
CAHOKIA*       CLEAR     55  44  66 NE5       30.16R
SPARTA*        CLEAR     53  43  69 NE5       30.15R
$$

ILZ064>066-069>071-074>076-080>082-084>086-088>090-092>094-220200-
SOUTH-CENTRAL ILLINOIS

CITY           SKY/WX    TMP DP  RH WIND       PRES   REMARKS
CARBONDALE     CLEAR     56  43  61 NE6       30.14R
CAIRO*         CLEAR     60  46  59 N5        30.12R
EFFINGHAM*     CLEAR     51  37  57 CALM      30.18R
MARION         CLEAR     55  45  67 N5        30.14R
MT. VERNON     CLEAR     50  39  66 N5        30.16R
CENTRALIA*     CLEAR     54  40  59 CALM      30.16R
SALEM*         CLEAR     52  44  74 NE3       30.17R
METROPOLIS*    CLEAR     58  46  65 NE3       30.12R
$$

ILZ067-068-072-073-078-083-087-091-220200-
SOUTHEAST ILLINOIS

CITY           SKY/WX    TMP DP  RH WIND       PRES   REMARKS
LAWRENCEVILLE  CLEAR     50  41  71 N7        30.16R
FLORA*         CLEAR     52  40  63 NE3       30.17R
FAIRFIELD*     CLEAR     50  41  71 N3        30.15R
HARRISBURG*    CLEAR     54  43  66 N5        30.15R
ROBINSON*      CLEAR     52  43  73 N7        30.17R
CARMI*         CLEAR     52  44  74 N3        30.15R
$$

ABBREVIATIONS USED IN REMARKS
   TC - TEMPERATURE IN CELSIUS
  WCI - WIND CHILL INDEX
   HX - HEAT INDEX
  VSB - VISIBILITY
$$




USA.gov is the U.S. government's official web portal to all federal, state and local government web resources and services.